Home > Products > Valid Products > RWR

000
ASUS45 KBOI 261110
RWRID

IDAHO REGIONAL WEATHER ROUNDUP
NATIONAL WEATHER SERVICE BOISE ID
500 AM MDT THU MAY 26 2016

NOTE: "FAIR" INDICATES FEW OR NO CLOUDS BELOW 12000 FEET
WITH NO SIGNIFICANT WEATHER AND/OR OBSTRUCTIONS TO VISIBILITY

IDZ012-014-261200-
SOUTHWEST IDAHO


CITY           SKY/WX    TMP DP  RH WIND       PRES   REMARKS
BOISE          CLEAR     49  41  74 S5        30.01S
CALDWELL       CLEAR     50  44  80 W3        30.02S
MOUNTAIN HOME  PTCLDY    55  46  71 NW9       30.00S
$$

IDZ016-017-261200-
SOUTHCENTRAL IDAHO


CITY           SKY/WX    TMP DP  RH WIND       PRES   REMARKS
BURLEY         CLEAR     42  37  82 CALM      30.02S
JEROME         CLEAR     47  39  74 S5        30.02F
TWIN FALLS     CLEAR     48  37  65 S13G21    30.02F
$$

IDZ019>023-261200-
SOUTHEAST IDAHO


CITY           SKY/WX    TMP DP  RH WIND       PRES   REMARKS
IDAHO FALLS    MOCLDY    41  38  89 CALM      30.04F
POCATELLO      CLEAR     38  37  97 CALM      30.04F
REXBURG        CLEAR     39  37  92 NE6       30.05S WCI  35
$$

IDZ006-010-011-018-031-032-261200-
CENTRAL IDAHO MOUNTAINS


CITY           SKY/WX    TMP DP  RH WIND       PRES   REMARKS
MCCALL         CLEAR     37  34  89 CALM      30.07S
HAILEY         CLEAR     37  36  93 NW9       30.08S WCI  31
STANLEY          N/A     28  25  88 S3        30.13S
SALMON         CLEAR     39  34  81 CALM      30.06S
CHALLIS        CLEAR     40  35  83 CALM      30.08S
$$

IDZ002-004-006-007-026-261200-
NORTHERN IDAHO


CITY           SKY/WX    TMP DP  RH WIND       PRES   REMARKS
LEWISTON       PTCLDY    52  46  80 CALM      30.04R
LOWELL           N/A     50  48  93 CALM      30.07F
COEUR D`ALENE  CLOUDY    55  45  67 S7        30.00F
MULLAN PASS    CLOUDY    42  38  85 W5        30.08S
$$






000
ASUS45 KBOI 260610
RWRID

IDAHO REGIONAL WEATHER ROUNDUP
NATIONAL WEATHER SERVICE BOISE ID
1200 AM MDT THU MAY 26 2016

NOTE: "FAIR" INDICATES FEW OR NO CLOUDS BELOW 12000 FEET
WITH NO SIGNIFICANT WEATHER AND/OR OBSTRUCTIONS TO VISIBILITY

IDZ012-014-260700-
SOUTHWEST IDAHO


CITY           SKY/WX    TMP DP  RH WIND       PRES   REMARKS
BOISE          CLEAR     55  43  63 SE6       29.99S
CALDWELL       CLEAR     56  43  61 W8        29.99R
MOUNTAIN HOME  PTCLDY    59  44  58 SW9       30.00R
$$

IDZ016-017-260700-
SOUTHCENTRAL IDAHO


CITY           SKY/WX    TMP DP  RH WIND       PRES   REMARKS
BURLEY         CLEAR     50  41  71 SW12      30.03S
JEROME         CLEAR     52  41  66 SE6       30.03S
TWIN FALLS     CLEAR     48  40  73 S12       30.04S
$$

IDZ019>023-260700-
SOUTHEAST IDAHO


CITY           SKY/WX    TMP DP  RH WIND       PRES   REMARKS
IDAHO FALLS    CLOUDY    45  41  86 CALM      30.05S
POCATELLO      CLEAR     46  40  79 CALM      30.05S
REXBURG        CLOUDY    46  41  82 NE3       30.06R
$$

IDZ006-010-011-018-031-032-260700-
CENTRAL IDAHO MOUNTAINS


CITY           SKY/WX    TMP DP  RH WIND       PRES   REMARKS
MCCALL         CLEAR     48  37  65 N5        30.07R
HAILEY         CLEAR     43  37  81 NW9       30.09S
STANLEY          N/A     35  31  85 SE3       30.11S
SALMON         CLEAR     48  34  57 CALM      30.02S
CHALLIS        CLEAR     45  37  73 NW5       30.05S
$$

IDZ002-004-006-007-026-260700-
NORTHERN IDAHO


CITY           SKY/WX    TMP DP  RH WIND       PRES   REMARKS
LEWISTON       CLEAR     61  47  59 S7        29.99S
LOWELL           N/A     52  50  93 CALM      30.06S
COEUR D`ALENE  CLOUDY    63  46  55 SE3       29.97S
MULLAN PASS    MOCLDY    43  40  89 NW6       30.08F
$$






000
ASUS45 KBOI 260510
RWRID

IDAHO REGIONAL WEATHER ROUNDUP
NATIONAL WEATHER SERVICE BOISE ID
1100 PM MDT WED MAY 25 2016

NOTE: "FAIR" INDICATES FEW OR NO CLOUDS BELOW 12000 FEET
WITH NO SIGNIFICANT WEATHER AND/OR OBSTRUCTIONS TO VISIBILITY

IDZ012-014-260600-
SOUTHWEST IDAHO


CITY           SKY/WX    TMP DP  RH WIND       PRES   REMARKS
BOISE          CLEAR     63  39  41 CALM      29.99R
CALDWELL       CLEAR     61  42  49 W7        29.98R
MOUNTAIN HOME  MOCLDY    62  44  51 NW2       29.99R
$$

IDZ016-017-260600-
SOUTHCENTRAL IDAHO


CITY           SKY/WX    TMP DP  RH WIND       PRES   REMARKS
BURLEY         CLOUDY    53  42  66 SW10      30.03R
JEROME         CLEAR     55  40  56 S3        30.03R
TWIN FALLS     CLEAR     49  40  71 S8        30.04R
$$

IDZ019>023-260600-
SOUTHEAST IDAHO


CITY           SKY/WX    TMP DP  RH WIND       PRES   REMARKS
IDAHO FALLS    CLOUDY    48  42  80 SW5       30.05R
POCATELLO      CLOUDY    47  42  83 S7        30.05R
REXBURG        CLOUDY    49  40  71 SW5       30.05R
$$

IDZ006-010-011-018-031-032-260600-
CENTRAL IDAHO MOUNTAINS


CITY           SKY/WX    TMP DP  RH WIND       PRES   REMARKS
MCCALL         CLEAR     51  36  56 N6        30.06R
HAILEY         PTCLDY    45  39  81 W9        30.09R
STANLEY          N/A     38  33  82 SE3       30.11R
SALMON         PTCLDY    55  34  44 SW5       30.01R
CHALLIS        PTCLDY    51  38  60 NW6       30.05R
$$

IDZ002-004-006-007-026-260600-
NORTHERN IDAHO


CITY           SKY/WX    TMP DP  RH WIND       PRES   REMARKS
LEWISTON       CLEAR     63  46  54 S8        29.99S
LOWELL           N/A     53  51  93 CALM      30.06R
COEUR D`ALENE  CLOUDY    63  46  55 MISG      29.96S
MULLAN PASS    CLOUDY    44  41  89 NW6       30.09R
$$






000
ASUS45 KBOI 260110
RWRID

IDAHO REGIONAL WEATHER ROUNDUP
NATIONAL WEATHER SERVICE BOISE ID
700 PM MDT WED MAY 25 2016

NOTE: "FAIR" INDICATES FEW OR NO CLOUDS BELOW 12000 FEET
WITH NO SIGNIFICANT WEATHER AND/OR OBSTRUCTIONS TO VISIBILITY

IDZ012-014-260200-
SOUTHWEST IDAHO


CITY           SKY/WX    TMP DP  RH WIND       PRES   REMARKS
BOISE          MOSUNNY   70  39  32 NW9G21    29.96F
CALDWELL       MOSUNNY   70  44  39 NE6       29.96S HAZE
MOUNTAIN HOME  MOSUNNY   72  43  35 NW18G25   29.96S
$$

IDZ016-017-260200-
SOUTHCENTRAL IDAHO


CITY           SKY/WX    TMP DP  RH WIND       PRES   REMARKS
BURLEY         MOSUNNY   60  40  47 S9        30.00S
JEROME         MOSUNNY   63  37  38 SW12      30.01S
TWIN FALLS     MOSUNNY   58  39  49 SW8       30.01S
$$

IDZ019>023-260200-
SOUTHEAST IDAHO


CITY           SKY/WX    TMP DP  RH WIND       PRES   REMARKS
IDAHO FALLS    PTSUNNY   56  40  55 S7        30.02S
POCATELLO      PTSUNNY   55  43  63 S9        30.03S
REXBURG        CLOUDY    51  41  68 S9        30.03R
$$

IDZ006-010-011-018-031-032-260200-
CENTRAL IDAHO MOUNTAINS


CITY           SKY/WX    TMP DP  RH WIND       PRES   REMARKS
MCCALL         MOSUNNY   60  32  34 N12       30.02S
HAILEY         MOSUNNY   54  43  66 SE6       30.04F
STANLEY          N/A     48  37  65 SE9       30.06R
SALMON         MOSUNNY   66  36  32 N12       29.93S
CHALLIS        MOSUNNY   62  31  31 NW3       29.97S
$$

IDZ002-004-006-007-026-260200-
NORTHERN IDAHO


CITY           SKY/WX    TMP DP  RH WIND       PRES   REMARKS
LEWISTON       SUNNY     70  47  43 S5        29.97S
LOWELL           N/A     56  53  90 CALM      30.03F
COEUR D`ALENE  CLOUDY    70  48  46 SW10      29.94S
MULLAN PASS    PTSUNNY   50  41  71 VRB6      30.07S
$$






000
ASUS45 KBOI 251910
RWRID

IDAHO REGIONAL WEATHER ROUNDUP
NATIONAL WEATHER SERVICE BOISE ID
100 PM MDT WED MAY 25 2016

NOTE: "FAIR" INDICATES FEW OR NO CLOUDS BELOW 12000 FEET
WITH NO SIGNIFICANT WEATHER AND/OR OBSTRUCTIONS TO VISIBILITY

IDZ012-014-252000-
SOUTHWEST IDAHO


CITY           SKY/WX    TMP DP  RH WIND       PRES   REMARKS
BOISE          SUNNY     67  37  33 NW16      30.01F
CALDWELL       SUNNY     69  43  38 W8G17     30.01F
MOUNTAIN HOME  PTSUNNY   69  42  38 W12G22    30.00F
$$

IDZ016-017-252000-
SOUTHCENTRAL IDAHO


CITY           SKY/WX    TMP DP  RH WIND       PRES   REMARKS
BURLEY         MOSUNNY   62  41  46 W13G21    30.02F
JEROME         MOSUNNY   62  39  42 SW14G24   30.03F
TWIN FALLS     PTSUNNY   61  40  45 W18G24    30.04S
$$

IDZ019>023-252000-
SOUTHEAST IDAHO


CITY           SKY/WX    TMP DP  RH WIND       PRES   REMARKS
IDAHO FALLS    CLOUDY    58  43  57 SW9       30.02S
POCATELLO      CLOUDY    61  42  49 W14G21    30.02F
REXBURG        CLOUDY    54  43  66 SW6       30.02F
$$

IDZ006-010-011-018-031-032-252000-
CENTRAL IDAHO MOUNTAINS


CITY           SKY/WX    TMP DP  RH WIND       PRES   REMARKS
MCCALL         MOSUNNY   57  30  35 N8        30.03S
HAILEY         PTSUNNY   57  36  44 N6        30.02F
STANLEY          N/A     51  29  42 NW7       30.06S
SALMON         PTSUNNY   57  39  51 NW5       29.99F
CHALLIS        PTSUNNY   56  37  49 VRB5      30.01F
$$

IDZ002-004-006-007-026-252000-
NORTHERN IDAHO


CITY           SKY/WX    TMP DP  RH WIND       PRES   REMARKS
LEWISTON       MOSUNNY   65  46  50 VRB3      30.04F
LOWELL           N/A     56  53  90 VRB5      30.05R
COEUR D`ALENE  CLOUDY    64  50  59 W10       30.00R
MULLAN PASS    PTSUNNY   48  42  80 NW7       30.06S
$$






000
ASUS45 KBOI 251610
RWRID

IDAHO REGIONAL WEATHER ROUNDUP
NATIONAL WEATHER SERVICE BOISE ID
1000 AM MDT WED MAY 25 2016

NOTE: "FAIR" INDICATES FEW OR NO CLOUDS BELOW 12000 FEET
WITH NO SIGNIFICANT WEATHER AND/OR OBSTRUCTIONS TO VISIBILITY

IDZ012-014-251700-
SOUTHWEST IDAHO


CITY           SKY/WX    TMP DP  RH WIND       PRES   REMARKS
BOISE          MOSUNNY   59  42  53 NW7       30.02R
CALDWELL       SUNNY     61  44  53 W9        30.02R
MOUNTAIN HOME  PTSUNNY   60  47  61 W6        30.02R
$$

IDZ016-017-251700-
SOUTHCENTRAL IDAHO


CITY           SKY/WX    TMP DP  RH WIND       PRES   REMARKS
BURLEY         SUNNY     57  41  55 W9G21     30.01R
JEROME         CLOUDY    53  43  68 SW12      30.04R
TWIN FALLS     CLOUDY    51  43  74 W13       30.04R
$$

IDZ019>023-251700-
SOUTHEAST IDAHO


CITY           SKY/WX    TMP DP  RH WIND       PRES   REMARKS
IDAHO FALLS    CLOUDY    50  43  77 CALM      30.03R
POCATELLO      CLOUDY    53  43  68 W17       30.03R
REXBURG        CLOUDY    47  43  86 CALM      30.02R
$$

IDZ006-010-011-018-031-032-251700-
CENTRAL IDAHO MOUNTAINS


CITY           SKY/WX    TMP DP  RH WIND       PRES   REMARKS
MCCALL         SUNNY     52  35  52 NW6       30.02R
HAILEY         MOSUNNY   52  43  71 SE5       30.04R
STANLEY          N/A     48  35  60 N5        30.05R
SALMON         CLOUDY    50  37  62 CALM      30.02R
CHALLIS        CLOUDY    50  40  68 CALM      30.02R
$$

IDZ002-004-006-007-026-251700-
NORTHERN IDAHO


CITY           SKY/WX    TMP DP  RH WIND       PRES   REMARKS
LEWISTON       CLOUDY    56  50  80 CALM      30.03R
LOWELL           N/A     54  46  74 CALM      30.06S
COEUR D`ALENE  PTSUNNY   55  48  76 S9        29.99R
MULLAN PASS    FOG       41  41 100 NW5       30.04R VSB 1/4
$$






000
ASUS45 KBOI 251410
RWRID

IDAHO REGIONAL WEATHER ROUNDUP
NATIONAL WEATHER SERVICE BOISE ID
800 AM MDT WED MAY 25 2016

NOTE: "FAIR" INDICATES FEW OR NO CLOUDS BELOW 12000 FEET
WITH NO SIGNIFICANT WEATHER AND/OR OBSTRUCTIONS TO VISIBILITY

IDZ012-014-251500-
SOUTHWEST IDAHO


CITY           SKY/WX    TMP DP  RH WIND       PRES   REMARKS
BOISE          MOSUNNY   52  42  69 NW7       29.99R
CALDWELL       MOSUNNY   52  43  71 W7        30.00R
MOUNTAIN HOME  PTSUNNY   54  44  69 W7        30.00R
$$

IDZ016-017-251500-
SOUTHCENTRAL IDAHO


CITY           SKY/WX    TMP DP  RH WIND       PRES   REMARKS
BURLEY         CLOUDY    53  40  61 SW9       29.99R
JEROME         PTSUNNY   51  41  68 W9        30.00R
TWIN FALLS     CLOUDY    54  41  61 W13       30.01R
$$

IDZ019>023-251500-
SOUTHEAST IDAHO


CITY           SKY/WX    TMP DP  RH WIND       PRES   REMARKS
IDAHO FALLS    CLOUDY    47  44  90 N3        30.00R
POCATELLO      CLOUDY    52  43  71 SW9       30.00R
REXBURG        CLOUDY    44  41  89 NE6       30.00S
$$

IDZ006-010-011-018-031-032-251500-
CENTRAL IDAHO MOUNTAINS


CITY           SKY/WX    TMP DP  RH WIND       PRES   REMARKS
MCCALL         SUNNY     45  38  76 CALM      30.00R
HAILEY         MOSUNNY   45  39  81 NW7       30.02R
STANLEY          N/A     39  32  76 CALM      30.04R
SALMON         PTSUNNY   45  37  76 N5        30.00R
CHALLIS        CLOUDY    45  40  82 CALM      30.01R
$$

IDZ002-004-006-007-026-251500-
NORTHERN IDAHO


CITY           SKY/WX    TMP DP  RH WIND       PRES   REMARKS
LEWISTON       CLOUDY    51  47  86 CALM      30.01R
LOWELL           N/A     49  44  83 CALM      30.05R
COEUR D`ALENE  PTSUNNY   48  46  93 SE9       29.97R
MULLAN PASS    FOG       39  39 100 NW5       30.01S VSB<1/4
$$






000
ASUS45 KBOI 251210
RWRID

IDAHO REGIONAL WEATHER ROUNDUP
NATIONAL WEATHER SERVICE BOISE ID
600 AM MDT WED MAY 25 2016

NOTE: "FAIR" INDICATES FEW OR NO CLOUDS BELOW 12000 FEET
WITH NO SIGNIFICANT WEATHER AND/OR OBSTRUCTIONS TO VISIBILITY

IDZ012-014-251300-
SOUTHWEST IDAHO


CITY           SKY/WX    TMP DP  RH WIND       PRES   REMARKS
BOISE          PTCLDY    51  41  68 W6        29.96R
CALDWELL       PTCLDY    49  41  74 W7        29.96R
MOUNTAIN HOME  CLOUDY    54  44  68 NW10      29.95R
$$

IDZ016-017-251300-
SOUTHCENTRAL IDAHO


CITY           SKY/WX    TMP DP  RH WIND       PRES   REMARKS
BURLEY         CLOUDY    50  40  68 SW7       29.96R
JEROME         CLOUDY    49  41  74 SW7       29.96R
TWIN FALLS     MOCLDY    49  39  68 S13       29.97R
$$

IDZ019>023-251300-
SOUTHEAST IDAHO


CITY           SKY/WX    TMP DP  RH WIND       PRES   REMARKS
IDAHO FALLS    CLOUDY    45  43  93 N5        29.98S
POCATELLO      LGT RAIN  46  44  93 E3        29.98R
REXBURG        LGT RAIN  44  41  89 E5        29.98R
$$

IDZ006-010-011-018-031-032-251300-
CENTRAL IDAHO MOUNTAINS


CITY           SKY/WX    TMP DP  RH WIND       PRES   REMARKS
MCCALL         CLEAR     35  32  88 CALM      29.98R
HAILEY         MOCLDY    41  37  87 CALM      29.99R
STANLEY          N/A     35  30  82 CALM      30.01R
SALMON         CLOUDY    45  37  76 CALM      29.97R
CHALLIS        CLOUDY    43  40  89 CALM      29.98R
$$

IDZ002-004-006-007-026-251300-
NORTHERN IDAHO


CITY           SKY/WX    TMP DP  RH WIND       PRES   REMARKS
LEWISTON       CLEAR     49  45  86 SE3       29.98R
LOWELL           N/A     48  44  86 CALM      30.03R
COEUR D`ALENE  CLOUDY    48  46  93 SE6       29.95R VSB 1/4
MULLAN PASS    FOG       38  38 100 NW6       29.99S VSB 1/2 WCI  33
$$






000
ASUS45 KBOI 251110
RWRID

IDAHO REGIONAL WEATHER ROUNDUP
NATIONAL WEATHER SERVICE BOISE ID
500 AM MDT WED MAY 25 2016

NOTE: "FAIR" INDICATES FEW OR NO CLOUDS BELOW 12000 FEET
WITH NO SIGNIFICANT WEATHER AND/OR OBSTRUCTIONS TO VISIBILITY

IDZ012-014-251200-
SOUTHWEST IDAHO


CITY           SKY/WX    TMP DP  RH WIND       PRES   REMARKS
BOISE          MOCLDY    53  41  63 NW6       29.94R
CALDWELL       MOCLDY    51  43  74 W6        29.95R
MOUNTAIN HOME  CLOUDY    56  41  58 NW10      29.93R
$$

IDZ016-017-251200-
SOUTHCENTRAL IDAHO


CITY           SKY/WX    TMP DP  RH WIND       PRES   REMARKS
BURLEY         CLOUDY    49  40  71 SW7       29.94R
JEROME         MOCLDY    50  41  71 SW6       29.95R
TWIN FALLS     CLOUDY    50  39  66 S13       29.95R
$$

IDZ019>023-251200-
SOUTHEAST IDAHO


CITY           SKY/WX    TMP DP  RH WIND       PRES   REMARKS
IDAHO FALLS    LGT RAIN  46  44  93 CALM      29.97S FOG
POCATELLO      CLOUDY    46  43  89 SW3       29.97R
REXBURG        CLOUDY    45  41  86 NE6       29.97S
$$

IDZ006-010-011-018-031-032-251200-
CENTRAL IDAHO MOUNTAINS


CITY           SKY/WX    TMP DP  RH WIND       PRES   REMARKS
MCCALL         CLEAR     35  32  88 CALM      29.96S
HAILEY         MOCLDY    43  37  81 NE3       29.98R
STANLEY          N/A     39  32  76 CALM      30.00S
SALMON         CLOUDY    45  37  76 CALM      29.96S
CHALLIS        CLOUDY    41  39  93 SE3       29.96S
$$

IDZ002-004-006-007-026-251200-
NORTHERN IDAHO


CITY           SKY/WX    TMP DP  RH WIND       PRES   REMARKS
LEWISTON       PTCLDY    49  45  86 SE3       29.96S
LOWELL           N/A     48  45  89 CALM      30.02R
COEUR D`ALENE  MOCLDY    45  41  87 CALM      29.94S
MULLAN PASS    FOG       38  38 100 VRB5      29.99S VSB 1/4 WCI  34
$$






    US Dept of Commerce
    National Oceanic and Atmospheric Administration
    National Weather Service
    1325 East West Highway
    Silver Spring, MD 20910
    Page Author: NWS Internet Services Team
Disclaimer
Information Quality
Credits
Glossary
Privacy Policy
Freedom of Information Act (FOIA)
About Us
Career Opportunities